Weather History for KCCR - October, 2013

Change the Weather History Date:

Saturday, October 26, 2013

  Actual Average Record
Temperature  
Mean Temperature 62 °F 61 °F  
Max Temperature 80 °F 73 °F 90 °F (2003)
Min Temperature 43 °F 49 °F 42 °F (2011)
Degree Days  
Heating Degree Days 3    
Month to date heating degree days 73  
Since 1 July heating degree days 91  
Cooling Degree Days 0    
Month to date cooling degree days 7  
Year to date cooling degree days 826  
Growing Degree Days 12 (Base 50)    
Moisture  
Dew Point 44 °F    
Average Humidity 58    
Maximum Humidity 93    
Minimum Humidity 23    
Precipitation  
Precipitation 0.00 in - 1.74 in (1991)
Month to date precipitation 0.01  
Year to date precipitation 2.73  
Since 1 July precipitation 0.67  
Sea Level Pressure  
Sea Level Pressure 30.04 in    
Wind  
Wind Speed 2 mph (South)    
Max Wind Speed 9 mph    
Max Gust Speed 12 mph    
Visibility 10 miles    
Events      
T = Trace of Precipitation, MM = Missing Value Source: NWS Daily Summary

Daily Weather History Graph

Daily Weather History Graph

Search for Another Location

Airport or City:

Trip Planner

Search our weather history database for the weather conditions in past years. The results will help you decide how hot, cold, wet, or windy it might be!

Date:

Astronomy

Oct. 26, 2013 Rise Set
Actual Time 7:28 AM PDT 6:15 PM PDT
Civil Twilight 7:01 AM PDT 6:42 PM PDT
Nautical Twilight 6:30 AM PDT 7:13 PM PDT
Astronomical Twilight 5:59 AM PDT 7:44 PM PDT
Moon No Moon Rise 1:46 PM PDT (10/26)
Length of Visible Light 11h 41m
Length of Day
10h 47m
Waning Gibbous, 52% of the Moon is Illuminated
Oct 26
Waning Gibbous
Oct 26
Last Quarter
Nov 3
New
Nov 9
First Quarter
Nov 17
Full

Hourly Weather History & Observations

Time (PDT) Temp. Dew Point Humidity Pressure Visibility Wind Dir Wind Speed Gust Speed Precip Events Conditions
12:53 AM 48.9 °F 45.0 °F 86% 30.08 in 10.0 mi Calm Calm - N/A   Clear
1:53 AM 48.0 °F 45.0 °F 89% 30.09 in 10.0 mi Calm Calm - N/A   Clear
2:53 AM 46.9 °F 44.1 °F 90% 30.09 in 10.0 mi Calm Calm - N/A   Clear
3:53 AM 46.0 °F 44.1 °F 93% 30.08 in 10.0 mi Calm Calm - N/A   Clear
4:53 AM 46.0 °F 43.0 °F 89% 30.08 in 10.0 mi Calm Calm - N/A   Clear
5:53 AM 45.0 °F 42.1 °F 90% 30.08 in 10.0 mi Calm Calm - N/A   Clear
6:53 AM 44.1 °F 42.1 °F 93% 30.09 in 10.0 mi Calm Calm - N/A   Clear
7:53 AM 44.1 °F 42.1 °F 93% 30.10 in 8.0 mi Calm Calm - N/A   Clear
8:53 AM 50.0 °F 45.0 °F 83% 30.12 in 10.0 mi Calm Calm - 0.01 in   Clear
9:53 AM 55.9 °F 46.0 °F 69% 30.12 in 10.0 mi Calm Calm - N/A   Clear
10:53 AM 62.1 °F 46.0 °F 56% 30.10 in 10.0 mi Calm Calm - N/A   Clear
11:53 AM 69.1 °F 46.0 °F 44% 30.10 in 10.0 mi North 3.5 mph - N/A   Clear
12:53 PM 73.0 °F 44.1 °F 35% 30.07 in 10.0 mi North 6.9 mph - N/A   Clear
1:53 PM 75.9 °F 43.0 °F 31% 30.04 in 10.0 mi North 5.8 mph - N/A   Clear
2:53 PM 78.1 °F 41.0 °F 27% 30.01 in 10.0 mi North 5.8 mph - N/A   Clear
3:53 PM 80.1 °F 42.1 °F 26% 29.99 in 10.0 mi NNE 3.5 mph - N/A   Clear
4:53 PM 80.1 °F 39.0 °F 23% 29.98 in 10.0 mi North 3.5 mph - N/A   Clear
5:53 PM 75.0 °F 42.1 °F 31% 29.97 in 10.0 mi North 4.6 mph - N/A   Clear
6:53 PM 66.9 °F 44.1 °F 44% 29.97 in 10.0 mi Calm Calm - N/A   Clear
7:53 PM 63.0 °F 45.0 °F 52% 29.98 in 10.0 mi Calm Calm - N/A   Clear
8:53 PM 61.0 °F 43.0 °F 52% 29.98 in 10.0 mi Calm Calm - N/A   Clear
9:53 PM 57.0 °F 44.1 °F 62% 29.99 in 9.0 mi Calm Calm - N/A   Clear
10:53 PM 55.9 °F 44.1 °F 64% 29.99 in 10.0 mi SSW 3.5 mph - N/A   Clear
11:53 PM 53.1 °F 46.0 °F 77% 29.98 in 10.0 mi Calm Calm - N/A   Clear